Weather History for Merrill, WI

Change the Weather History Date:

Friday, October 12, 2012

  Actual Average Record
Temperature  
Mean Temperature 32 °F -  
Max Temperature 46 °F 57 °F 82 °F (1930)
Min Temperature 17 °F 33 °F 17 °F (1987)
Degree Days  
Heating Degree Days 34    
Moisture  
Dew Point 21 °F    
Average Humidity 68    
Maximum Humidity 100    
Minimum Humidity 34    
Precipitation  
Precipitation 0.00 in - - ()
Sea Level Pressure  
Sea Level Pressure 30.35 in    
Wind  
Wind Speed 2 mph (SSW)    
Max Wind Speed 12 mph    
Max Gust Speed 20 mph    
Visibility 10 miles    
Events      
Averages and records for this station are not official NWS values.
T = Trace of Precipitation, MM = Missing Value Source: NWS Daily Summary

Daily Weather History Graph

Daily Weather History Graph

Search for Another Location

Airport:

Trip Planner

Search our weather history database for the weather conditions in past years. The results will help you decide how hot, cold, wet, or windy it might be!

Date:

Astronomy

Oct. 12, 2012 Rise Set
Actual Time 7:11 AM CDT 6:18 PM CDT
Civil Twilight 6:41 AM CDT 6:47 PM CDT
Nautical Twilight 6:07 AM CDT 7:21 PM CDT
Astronomical Twilight 5:33 AM CDT 7:55 PM CDT
Moon 3:46 AM CDT (10/12) 4:33 PM CDT (10/12)
Length of Visible Light 12h 05m
Length of Day
11h 06m
Waning Crescent, 10% of the Moon is Illuminated
Oct 12
Waning Crescent
Oct 15
New
Oct 21
First Quarter
Oct 29
Full
Nov 6
Last Quarter

Hourly Weather History & Observations

Time (CDT) Temp. Windchill Dew Point Humidity Pressure Visibility Wind Dir Wind Speed Gust Speed Precip Events Conditions
12:15 AM 26.6 °F - 21.2 °F 80% 30.32 in 10.0 mi Calm Calm - N/A   Clear
12:35 AM 23.0 °F 18.4 °F 19.4 °F 86% 30.33 in 10.0 mi WNW 3.5 mph - N/A   Clear
12:55 AM 23.0 °F - 19.4 °F 86% 30.34 in 10.0 mi Calm Calm - N/A   Clear
1:15 AM 23.0 °F - 19.4 °F 86% 30.34 in 10.0 mi Calm Calm - N/A   Clear
1:35 AM 21.2 °F - 19.4 °F 93% 30.35 in 10.0 mi Calm Calm - N/A   Clear
1:55 AM 21.2 °F - 17.6 °F 86% 30.36 in 10.0 mi Calm Calm - N/A   Clear
3:15 AM 21.2 °F - 17.6 °F 86% 30.37 in 10.0 mi Calm Calm - N/A   Clear
3:35 AM 21.2 °F - 17.6 °F 86% 30.37 in 10.0 mi Calm Calm - N/A   Clear
3:55 AM 19.4 °F - 15.8 °F 86% 30.38 in 10.0 mi Calm Calm - N/A   Clear
4:15 AM 21.2 °F - 17.6 °F 86% 30.38 in 10.0 mi Calm Calm - N/A   Clear
4:35 AM 19.4 °F - 17.6 °F 93% 30.39 in 10.0 mi Calm Calm - N/A   Clear
4:55 AM 19.4 °F - 17.6 °F 93% 30.39 in 10.0 mi Calm Calm - N/A   Clear
5:15 AM 19.4 °F - 17.6 °F 93% 30.39 in 10.0 mi Calm Calm - N/A   Clear
5:35 AM 19.4 °F - 17.6 °F 93% 30.39 in 10.0 mi Calm Calm - N/A   Clear
5:55 AM 17.6 °F - 14.0 °F 86% 30.41 in 10.0 mi Calm Calm - N/A   Clear
6:15 AM 17.6 °F - 14.0 °F 86% 30.41 in 10.0 mi Calm Calm - N/A   Clear
6:35 AM 17.6 °F - 14.0 °F 86% 30.41 in 10.0 mi Calm Calm - N/A   Clear
6:55 AM 17.6 °F - 14.0 °F 86% 30.42 in 10.0 mi Calm Calm - N/A   Clear
7:15 AM 17.6 °F - 17.6 °F 100% 30.43 in 10.0 mi Calm Calm - N/A   Clear
7:35 AM 19.4 °F - 17.6 °F 93% 30.42 in 10.0 mi Calm Calm - N/A   Clear
7:55 AM 21.2 °F - 19.4 °F 93% 30.43 in 10.0 mi Calm Calm - N/A   Clear
8:15 AM 21.2 °F - 19.4 °F 93% 30.44 in 10.0 mi Calm Calm - N/A   Clear
8:35 AM 24.8 °F - 21.2 °F 86% 30.44 in 10.0 mi Calm Calm - N/A   Clear
8:55 AM 28.4 °F - 26.6 °F 93% 30.44 in 10.0 mi Calm Calm - N/A   Clear
9:15 AM 32.0 °F - 28.4 °F 87% 30.44 in 10.0 mi Calm Calm - N/A   Clear
9:55 AM 33.8 °F - 28.4 °F 81% 30.44 in 10.0 mi Calm Calm - N/A   Clear
10:15 AM 35.6 °F - 28.4 °F 75% 30.44 in 10.0 mi Calm Calm - N/A   Clear
10:35 AM 37.4 °F - 28.4 °F 70% 30.44 in 10.0 mi Calm Calm - N/A   Clear
11:15 AM 39.2 °F - 26.6 °F 61% 30.43 in 10.0 mi Calm Calm - N/A   Clear
11:35 AM 41.0 °F - 24.8 °F 53% 30.42 in 10.0 mi Calm Calm - N/A   Clear
11:55 AM 41.0 °F - 24.8 °F 53% 30.41 in 10.0 mi Calm Calm - N/A   Clear
12:15 PM 42.8 °F 40.1 °F 24.8 °F 49% 30.40 in 10.0 mi SW 4.6 mph - N/A   Clear
12:35 PM 44.6 °F 42.2 °F 23.0 °F 43% 30.40 in 10.0 mi SW 4.6 mph - N/A   Clear
12:55 PM 44.6 °F 40.2 °F 21.2 °F 39% 30.39 in 10.0 mi SW 8.1 mph - N/A   Clear
1:35 PM 46.4 °F 41.9 °F 23.0 °F 40% 30.37 in 10.0 mi SSW 9.2 mph - N/A   Clear
2:35 PM 46.4 °F 42.4 °F 21.2 °F 37% 30.35 in 10.0 mi SSW 8.1 mph - N/A   Clear
3:15 PM 46.4 °F 42.9 °F 21.2 °F 37% 30.33 in 10.0 mi SSW 6.9 mph - N/A   Clear
3:55 PM 46.4 °F 41.1 °F 19.4 °F 34% 30.32 in 10.0 mi SW 11.5 mph 18.4 mph N/A   Clear
4:15 PM 46.4 °F 41.5 °F 19.4 °F 34% 30.32 in 10.0 mi SSW 10.4 mph 16.1 mph N/A   Clear
4:35 PM 46.4 °F 42.4 °F 19.4 °F 34% 30.32 in 10.0 mi SW 8.1 mph 19.6 mph N/A   Clear
4:55 PM 46.4 °F 42.9 °F 21.2 °F 37% 30.30 in 10.0 mi SSW 6.9 mph - N/A   Clear
5:15 PM 46.4 °F 41.5 °F 21.2 °F 37% 30.29 in 10.0 mi SSW 10.4 mph - N/A   Clear
5:35 PM 44.6 °F 39.7 °F 21.2 °F 39% 30.28 in 10.0 mi SW 9.2 mph - N/A   Clear
6:15 PM 42.8 °F 40.1 °F 21.2 °F 42% 30.28 in 10.0 mi SW 4.6 mph - N/A   Clear
6:55 PM 41.0 °F - 21.2 °F 45% 30.27 in 10.0 mi Calm Calm - N/A   Clear
7:15 PM 39.2 °F - 21.2 °F 49% 30.27 in 10.0 mi Calm Calm - N/A   Clear
7:35 PM 35.6 °F - 21.2 °F 56% 30.25 in 10.0 mi Calm Calm - N/A   Clear
8:15 PM 37.4 °F - 21.2 °F 52% 30.25 in 10.0 mi Calm Calm - N/A   Clear
8:35 PM 32.0 °F - 19.4 °F 60% 30.24 in 10.0 mi Calm Calm - N/A   Clear
8:55 PM 32.0 °F - 21.2 °F 64% 30.23 in 10.0 mi Calm Calm - N/A   Clear
9:15 PM 32.0 °F 27.5 °F 21.2 °F 64% 30.22 in 10.0 mi SE 4.6 mph - N/A   Clear
9:35 PM 33.8 °F 29.6 °F 21.2 °F 60% 30.21 in 10.0 mi SSE 4.6 mph - N/A   Clear
9:55 PM 33.8 °F 30.8 °F 21.2 °F 60% 30.21 in 10.0 mi SSE 3.5 mph - N/A   Clear
10:15 PM 33.8 °F 30.8 °F 21.2 °F 60% 30.21 in 10.0 mi SSE 3.5 mph - N/A   Clear
10:35 PM 33.8 °F 30.8 °F 21.2 °F 60% 30.20 in 10.0 mi SE 3.5 mph - N/A   Clear
11:55 PM 33.8 °F 30.8 °F 21.2 °F 60% 30.19 in 10.0 mi SSE 3.5 mph - N/A   Clear